星链-37938(STARLINK-37938)

导读

STARLINK-37938(NORAD编号69568)是美国太空探索技术公司(SpaceX)星链低轨互联网星座的组成卫星,隶属于星链V2优化版批次,由猎鹰9号运载火箭发射入轨。该卫星运行于高度约550公里的近地轨道,轨道倾角约53度,单星轨道周期约95分钟,主要承担全球低延迟、高速率互联网接入服务任务,可覆盖地面网络难以通达的偏远、远洋及空域场景,当前处于稳定在轨运行状态,为星链全球通信网络的扩容提供支撑。

基本信息
目录编号:
69568
目录名称:
STARLINK-37938
国际标识:
2026-135Y
轨道中心:
EARTH
卫星名称:
星链-37938
卫星全名:
星链-37938(STARLINK-37938)
卫星状态:
在轨 (已飞行12 天)
发射日期:
2026-06-15 UTC
国别 :
美国 (US)
星等 :
--
轨道信息
数据来源 国际轨道数据
星历时间: 2026-06-27T15:29:59+0800
10小时前
查看轨道信息
半长轴: 6706.007km
偏心率: 0.0001137
轨道倾角: 97.283°
近地点辐角 138.802°
升交点赤经 205.971°
平近点角 221.333°
近地点: 327.107km
远地点: 328.633km
周期: 91.087分钟
每日圈数: 15.809088
详细信息
固有亮度:
5
最大亮度:
2.5
卫星平台:
Starlink V1.0
覆盖范围:
全球
运营商:
太空探索技术公司
运营商所在国:
美国
制造商(研发单位):
太空探索技术公司
制造商所在国:
美国
使用方式:
暂无
卫星简介
Starlink 计划是 SpaceX 推出的全球卫星互联网项目,通过发射低轨道卫星,为全球尤其是偏远地区提供高速、低延迟的互联网服务。自 2019 年起,Starlink 已部署数千颗卫星,旨在缩小全球数字鸿沟,推动互联网普及。该项目还为军事、航空等行业提供通信支持,带来广泛经济效益。
2D轨道图
3D轨道图
轨道高度分析图
轨道倾角分析图
轨道综合分析图
查看轨道综合分析图